Location: Unspecified
(48.7670°N, 0.0000°E)
Time: 22:14:48
(UTC+00:00)

Altair - Pass Details

Date: 03 July 2019
Orbit: 1501 x 1683 km, 47.2° (Epoch: 12 October)

Event Time Altitude Azimuth Distance (km) Brightness Sun altitude
Rises 00:35:47 0° 288° (WNW) 4,812 10.2 -17.9°
Reaches altitude 10° 00:39:57 10° 273° (W) 3,854 9.5 -17.8°
Maximum altitude 00:46:22 20° 232° (SW) 3,170 8.7 -17.6°
Enters shadow 00:48:17 19° 217° (SW) 3,248 8.7 -17.6°
Drops below altitude 10° 00:52:55 10° 190° (S) 3,917 - -17.4°
Sets 00:57:15 0° 175° (S) 4,915 - -17.3°
